[ ตารางข้อมูล ] [ Min-Max ] [ วันนี้4 ] [ วันนี้2 ] [ เทียบ3วัน A ] [ เทียบ4วัน B ]   

วันนี้2   [ ◀ ช่วงเก่ากว่า ] [ ช่วงที่ 233 ] [ ช่วงใหม่กว่า ▶ ] [ ล่าสุด ]    [ 3 ชั่วโมง ] [ 6 ชั่วโมง ] [ 12 ชั่วโมง ] [ 24 ชั่วโมง ]   วันนี้2

อุณภูมิตู้ Knockdown4529  ราย 6 ชั่วโมง  ที่วัดได้ ในช่วงวันเวลา 09/03/2026 (03:19) ถึง 09/03/2026 (09:19) 
ความชื้นในตู้ Knockdown4529  ราย 6 ชั่วโมง  ที่วัดได้ ในช่วงวันเวลา 09/03/2026 (03:19) ถึง 09/03/2026 (09:19) 

 
DS18B20SHTC3 
IDDate d/m/Y & Timedata1
สูง
data2
ต่ำ
data3
นอก
temp
pcb
hum
pcb
Time
 816  09/03/2026 09:18:51  28.0  27.4  29.2  27.6  69.9  09:18 
 815  09/03/2026 09:14:10  27.9  27.4  29.0  27.6  69.8  09:14 
 814  09/03/2026 09:09:29  27.8  27.2  29.2  27.2  69.9  09:09 
 813  09/03/2026 09:04:47  27.8  27.2  28.7  27.2  70.0  09:04 
 812  09/03/2026 09:00:07  27.7  27.1  28.7  27.2  70.1  09:00 
 811  09/03/2026 08:55:24  27.5  27.1  28.6  27.0  70.2  08:55 
 810  09/03/2026 08:50:43  27.4  27.0  28.9  27.0  70.2  08:50 
 809  09/03/2026 08:46:02  27.2  26.9  28.6  26.7  70.3  08:46 
 808  09/03/2026 08:41:21  27.1  26.8  28.4  26.9  70.6  08:41 
 807  09/03/2026 08:36:39  27.0  26.8  28.5  26.7  70.7  08:36 
 806  09/03/2026 08:31:57  26.9  26.7  28.2  26.7  70.8  08:31 
 805  09/03/2026 08:27:16  26.9  26.7  27.8  26.6  70.9  08:27 
 804  09/03/2026 08:22:35  26.8  26.6  27.7  26.6  71.2  08:22 
 803  09/03/2026 08:17:54  26.8  26.6  27.7  26.4  71.2  08:17 
 802  09/03/2026 08:13:11  26.7  26.5  27.7  26.4  71.2  08:13 
 801  09/03/2026 08:08:29  26.6  26.5  27.5  26.4  71.7  08:08 
 800  09/03/2026 08:03:48  26.5  26.4  27.4  26.4  71.5  08:03 
 799  09/03/2026 07:59:06  26.4  26.4  27.1  26.3  71.5  07:59 
 798  09/03/2026 07:54:25  26.3  26.4  27.0  26.5  71.6  07:54 
 797  09/03/2026 07:49:43  26.2  26.4  26.8  26.3  71.5  07:49 
 796  09/03/2026 07:45:03  26.2  26.4  26.6  26.4  71.6  07:45 
 795  09/03/2026 07:40:22  26.2  26.4  26.5  26.2  71.6  07:40 
 794  09/03/2026 07:35:40  26.2  26.3  26.3  26.2  71.5  07:35 
 793  09/03/2026 07:30:59  26.2  26.3  26.2  26.1  71.6  07:30 

Data every 5 minute.


ใช้เวลาประมวลผล 0.00303 วินาที